Location: Zilina
(0.0000°N, 18.7333°E)
Time: 00:59:06
(UTC+01:00)

Hubble Space Telescope - Pass Details

Date: 19 February 2019
Orbit: 537 x 540 km, 28.5° (Epoch: 17 March)

Event Time Altitude Azimuth Distance (km) Brightness Sun altitude
Rises 20:08:03 0° 302° (WNW) 2,669 4.9 -31.6°
Reaches altitude 10° 20:10:19 10° 303° (WNW) 1,780 3.9 -32.2°
Enters shadow 20:10:45 13° 303° (WNW) 1,613 3.6 -32.3°
